Location: Yellowknife
(62.4500°N, 114.3500°W)
Time: 16:57:54
(UTC-07:00)

Envisat - Visible Passes

Search period start: 25 January 2020 00:00
Search period end: 04 February 2020 00:00
Orbit: 764 x 766 km, 98.1° (Epoch: 25 January)

Date Brightness Start Highest point End Pass type
(mag) Time Alt. Az. Time Alt. Az. Time Alt. Az.
25 Jan 6.0 05:51:08 10° NE 05:54:18 16° E 05:57:28 10° ESE visible
25 Jan 3.6 07:29:20 10° NNE 07:34:24 62° ESE 07:39:27 10° S visible
25 Jan 3.1 17:16:04 10° SE 17:21:03 57° ENE 17:26:03 10° NNW visible
25 Jan 4.5 18:55:35 10° SSW 19:00:20 39° W 19:05:08 10° NNW visible
26 Jan 4.6 06:52:38 10° NNE 06:57:23 37° E 07:02:06 10° SSE visible
26 Jan 3.5 18:18:16 10° S 18:23:20 64° WSW 18:28:26 10° NNW visible
26 Jan 5.9 20:00:06 10° WSW 20:03:23 17° W 20:06:42 10° NW visible
27 Jan 5.5 06:16:09 10° NE 06:20:11 23° E 06:24:12 10° SE visible
27 Jan 3.1 07:54:50 10° NNE 07:59:58 86° ESE 08:05:04 10° SSW visible
27 Jan 3.0 17:41:24 10° SSE 17:46:29 79° ENE 17:51:36 10° NNW visible
27 Jan 5.2 19:21:45 10° SSW 19:26:06 28° W 19:30:27 10° NNW visible
28 Jan 6.2 05:40:10 10° NE 05:42:49 14° ENE 05:45:27 10° ESE visible
28 Jan 3.9 07:18:03 10° NNE 07:23:03 53° E 07:28:02 10° S visible
28 Jan 4.2 18:44:05 10° S 18:48:57 45° W 18:53:52 10° NNW visible
28 Jan 6.3 20:27:30 10° W 20:29:21 12° WNW 20:31:13 10° NW visible
29 Jan 4.9 06:41:24 10° NNE 06:45:59 32° E 06:50:32 10° SSE visible
29 Jan 3.0 08:20:22 10° NNE 08:25:27 69° WNW 08:30:30 10° SSW visible
29 Jan 3.3 18:06:55 10° SSE 18:12:00 75° WSW 18:17:08 10° NNW visible
29 Jan 5.7 19:48:15 10° SW 19:51:56 20° W 19:55:37 10° NW visible
30 Jan 5.7 06:05:01 10° NE 06:08:44 20° E 06:12:27 10° SE visible
30 Jan 3.3 07:43:31 10° NNE 07:48:39 75° ESE 07:53:45 10° SSW visible
30 Jan 3.0 17:30:09 10° SSE 17:35:13 69° ENE 17:40:18 10° NNW visible
30 Jan 4.9 19:10:08 10° SSW 19:14:40 32° W 19:19:15 10° NNW visible
31 Jan 6.3 05:29:24 10° NE 05:31:18 12° ENE 05:33:14 10° E visible
31 Jan 4.2 07:06:46 10° NNE 07:11:42 46° E 07:16:35 10° S visible
31 Jan 3.9 18:32:38 10° S 18:37:36 52° W 18:42:36 10° NNW visible
31 Jan 6.2 20:15:16 10° WSW 20:17:51 14° WNW 20:20:27 10° NW visible
01 Feb 5.2 06:30:12 10° NNE 06:34:34 28° E 06:38:56 10° SSE visible
01 Feb 3.0 08:09:03 10° NNE 08:14:10 79° WNW 08:19:16 10° SSW visible
01 Feb 3.1 17:55:35 10° SSE 18:00:41 85° WSW 18:05:50 10° NNW visible
01 Feb 5.5 19:36:29 10° SW 19:40:28 23° W 19:44:30 10° NW visible
02 Feb 6.0 05:53:56 10° NE 05:57:17 17° E 06:00:36 10° ESE visible
02 Feb 3.5 07:32:13 10° NNE 07:37:19 65° ESE 07:42:23 10° S visible
02 Feb 4.6 18:58:34 10° SSW 19:03:17 37° W 19:08:01 10° NNW visible
03 Feb 6.5 05:19:28 10° ENE 05:19:47 10° ENE 05:20:06 10° ENE visible
03 Feb 4.6 06:55:31 10° NNE 07:00:19 39° E 07:05:05 10° SSE visible
03 Feb 3.6 18:21:13 10° S 18:26:15 61° WSW 18:31:19 10° NNW visible
03 Feb 6.0 20:03:14 10° WSW 20:06:21 16° W 20:09:30 10° NW visible
